Kelowna, British Columbia

11:19 PM PDT on June 26, 2017 (GMT -0700)
Kelowna

Weather History for CYLW - March, 2013

Change the Weather History Date:

Wednesday, March 6, 2013

  Actual Average Record
Temperature  
Mean Temperature 34 °F -  
Max Temperature 36 °F 48 °F 58 °F (2016)
Min Temperature 32 °F 28 °F 10 °F (2009)
Degree Days  
Heating Degree Days 31    
Moisture  
Dew Point 32 °F    
Average Humidity 94    
Maximum Humidity 100    
Minimum Humidity 69    
Precipitation  
Precipitation 0.12 in 0.03 in - ()
Sea Level Pressure  
Sea Level Pressure 29.78 in    
Wind  
Wind Speed 6 mph ()    
Max Wind Speed 14 mph    
Max Gust Speed -    
Visibility 5.8 miles    
Events Rain , Snow    
Averages and records for this station are not official NWS values.
T = Trace of Precipitation, MM = Missing Value Source: Averaged Metar Reports

Daily Weather History Graph

Daily Weather History Graph

Search for Another Location

Airport or City:

Trip Planner

Search our weather history database for the weather conditions in past years. The results will help you decide how hot, cold, wet, or windy it might be!

Date:

Astronomy

Mar. 06, 2013 Rise Set
Actual Time 6:29 AM PST 5:48 PM PST
Civil Twilight 5:57 AM PST 6:20 PM PST
Nautical Twilight 5:20 AM PST 6:58 PM PST
Astronomical Twilight 4:42 AM PST 7:36 PM PST
Moon 3:08 AM PST (3/6) 12:11 PM PST (3/6)
Length of Visible Light 12h 23m
Length of Day
11h 19m
Waning Crescent, 29% of the Moon is Illuminated
Mar 6
Waning Crescent
Mar 11
New
Mar 19
First Quarter
Mar 27
Full
Apr 2
Last Quarter

Hourly Weather History & Observations

Time (PST) Temp. Windchill Dew Point Humidity Pressure Visibility Wind Dir Wind Speed Gust Speed Precip Events Conditions
12:00 AM 35.6 °F 31.7 °F 28.4 °F 75% 29.90 in 9.0 mi NNW 4.6 mph - N/A   Overcast
1:00 AM 35.6 °F - 28.4 °F 75% 29.89 in 9.0 mi Calm Calm - N/A   Overcast
2:00 AM 35.6 °F - 28.4 °F 75% 29.88 in 9.0 mi Calm Calm - N/A   Overcast
3:00 AM 33.8 °F - 30.2 °F 87% 29.86 in 9.0 mi Calm Calm - N/A   Overcast
4:00 AM 35 °F - 29 °F 69% 29.84 in 10 mi NNE 2.3 mph - -   Overcast
4:00 AM 35.6 °F - 28.4 °F 75% 29.84 in 9.0 mi Variable 2.3 mph - N/A   Overcast
4:56 AM 35.6 °F 28.6 °F 30.2 °F 81% 29.82 in 9.0 mi North 9.2 mph - N/A Rain Light Rain
5:00 AM 35.6 °F 29.2 °F 30.2 °F 81% 29.82 in 9.0 mi North 8.1 mph - N/A Rain Light Rain
5:06 AM 35.6 °F 28.0 °F 28.4 °F 75% 29.82 in 9.0 mi North 10.4 mph - N/A   Overcast
5:09 AM 35.6 °F 27.5 °F 28.4 °F 75% 29.81 in 9.0 mi North 11.5 mph - N/A Rain Light Rain
5:50 AM 35.6 °F 27.5 °F 30.2 °F 81% 29.81 in 8.0 mi North 11.5 mph - N/A Rain , Snow Light Snow
5:52 AM 35.6 °F 27.1 °F 30.2 °F 81% 29.81 in 7.0 mi North 12.7 mph - N/A Rain , Snow Light Snow
5:53 AM 35.6 °F 26.6 °F 30.2 °F 81% 29.81 in 5.0 mi North 13.8 mph - N/A Rain , Snow Light Snow
5:55 AM 33.8 °F 24.3 °F 30.2 °F 87% 29.81 in 4.0 mi North 13.8 mph - N/A Snow Light Snow
6:00 AM 33.8 °F 24.8 °F 30.2 °F 87% 29.81 in 3.0 mi North 12.7 mph - N/A Snow Light Snow
6:03 AM 33.8 °F 25.3 °F 30.2 °F 87% 29.81 in 2.5 mi North 11.5 mph - N/A Snow Light Snow
6:15 AM 33.8 °F 28.6 °F 30.2 °F 87% 29.81 in 3.0 mi NNE 5.8 mph - N/A Snow Light Snow
6:18 AM 33.8 °F 28.6 °F 30.2 °F 87% 29.81 in 6.0 mi NNE 5.8 mph - N/A Snow Light Snow
6:23 AM 33.8 °F 28.6 °F 30.2 °F 87% 29.80 in 9.0 mi NNE 5.8 mph - N/A Snow Light Snow
6:35 AM 33.8 °F 27.7 °F 30.2 °F 87% 29.80 in 9.0 mi North 6.9 mph - N/A Snow Light Snow
6:42 AM 33.8 °F 27.0 °F 30.2 °F 87% 29.80 in 5.0 mi North 8.1 mph - N/A Snow Light Snow
7:00 AM 33.8 °F 27.0 °F 32.0 °F 93% 29.80 in 5.0 mi North 8.1 mph - N/A Snow Light Snow
7:14 AM 32.0 °F 25.6 °F 32.0 °F 100% 29.79 in 2.5 mi North 6.9 mph - N/A Snow Light Snow
7:19 AM 32.0 °F 24.2 °F 32.0 °F 100% 29.79 in 2.0 mi North 9.2 mph - N/A Snow Light Snow
7:20 AM 32.0 °F 24.8 °F 32.0 °F 100% 29.79 in 1.5 mi North 8.1 mph - N/A Snow Light Snow
7:22 AM 32.0 °F 24.2 °F 32.0 °F 100% 29.79 in 1.2 mi North 9.2 mph - N/A Snow Light Snow
7:23 AM 32.0 °F 24.8 °F 32.0 °F 100% 29.79 in 1.2 mi North 8.1 mph - N/A Snow Light Snow
7:27 AM 32.0 °F 24.8 °F 32.0 °F 100% 29.79 in 1.2 mi North 8.1 mph - N/A Snow Light Snow
8:00 AM 32.0 °F 24.2 °F 32.0 °F 100% 29.78 in 1.2 mi North 9.2 mph - N/A Snow Light Snow
8:05 AM 32.0 °F 24.2 °F 32.0 °F 100% 29.78 in 1.2 mi North 9.2 mph - N/A Snow Light Snow
8:13 AM 32.0 °F 24.2 °F 32.0 °F 100% 29.78 in 1.5 mi North 9.2 mph - N/A Snow Light Snow
9:00 AM 32.0 °F 23.6 °F 32.0 °F 100% 29.78 in 1.5 mi North 10.4 mph - N/A Snow Light Snow
9:03 AM 32.0 °F 24.8 °F 32.0 °F 100% 29.78 in 1.2 mi North 8.1 mph - N/A Snow Light Snow
10:00 AM 33 °F - 32 °F 93% 29.76 in 1 mi North 11.5 mph - - Snow Light Snow
10:00 AM 32.0 °F 23.0 °F 32.0 °F 100% 29.76 in 1.2 mi North 11.5 mph - N/A Snow Light Snow
10:34 AM 32.0 °F 25.6 °F 32.0 °F 100% 29.76 in 1.0 mi North 6.9 mph - N/A Snow Light Snow
11:00 AM 32.0 °F 23.0 °F 32.0 °F 100% 29.75 in 1.2 mi North 11.5 mph - N/A Snow Light Snow
11:10 AM 32.0 °F 23.6 °F 32.0 °F 100% 29.75 in 1.5 mi NNW 10.4 mph - N/A Snow Light Snow
11:37 AM 33.8 °F 25.8 °F 32.0 °F 93% 29.75 in 2.5 mi North 10.4 mph - N/A Snow Light Snow
11:39 AM 33.8 °F 25.8 °F 32.0 °F 93% 29.75 in 3.0 mi North 10.4 mph - N/A Snow Light Snow
11:47 AM 33.8 °F 25.8 °F 32.0 °F 93% 29.75 in 3.0 mi North 10.4 mph - N/A Snow Light Snow
11:48 AM 33.8 °F 25.8 °F 32.0 °F 93% 29.75 in 2.5 mi North 10.4 mph - N/A Snow Light Snow
12:00 PM 33.8 °F 24.8 °F 32.0 °F 93% 29.75 in 1.5 mi North 12.7 mph - N/A Snow Light Snow
12:58 PM 33.8 °F 26.4 °F 32.0 °F 93% 29.74 in 3.0 mi North 9.2 mph - N/A Snow Light Snow
1:00 PM 33.8 °F 26.4 °F 32.0 °F 93% 29.74 in 3.0 mi North 9.2 mph - N/A Snow Light Snow
1:16 PM 33.8 °F 25.8 °F 33.8 °F 100% 29.74 in 4.0 mi North 10.4 mph - N/A Snow Light Snow
1:22 PM 33.8 °F 26.4 °F 33.8 °F 100% 29.74 in 6.0 mi North 9.2 mph - N/A Snow Light Snow
1:24 PM 33.8 °F 26.4 °F 33.8 °F 100% 29.74 in 7.0 mi North 9.2 mph - N/A Rain , Snow Light Snow
1:29 PM 33.8 °F 25.8 °F 33.8 °F 100% 29.74 in 9.0 mi North 10.4 mph - N/A Rain Light Rain
1:32 PM 33.8 °F 26.4 °F 33.8 °F 100% 29.74 in 9.0 mi North 9.2 mph - N/A Rain Light Rain
1:36 PM 33.8 °F 26.4 °F 32.0 °F 93% 29.74 in 9.0 mi North 9.2 mph - N/A Rain Light Rain
1:40 PM 33.8 °F 27.0 °F 33.8 °F 100% 29.74 in 9.0 mi North 8.1 mph - N/A Rain Light Rain
1:41 PM 33.8 °F 27.0 °F 33.8 °F 100% 29.74 in 9.0 mi North 8.1 mph - N/A Rain Light Rain
1:45 PM 33.8 °F 26.4 °F 33.8 °F 100% 29.74 in 9.0 mi North 9.2 mph - N/A Rain Light Rain
2:00 PM 33.8 °F 27.0 °F 33.8 °F 100% 29.74 in 9.0 mi North 8.1 mph - N/A Rain Light Rain
2:10 PM 33.8 °F 28.6 °F 33.8 °F 100% 29.74 in 9.0 mi North 5.8 mph - N/A Rain Light Rain
2:15 PM 33.8 °F 28.6 °F 33.8 °F 100% 29.75 in 9.0 mi North 5.8 mph - N/A   Overcast
2:30 PM 33.8 °F 27.7 °F 32.0 °F 93% 29.74 in 8.0 mi North 6.9 mph - N/A   Overcast
2:33 PM 33.8 °F 27.0 °F 33.8 °F 100% 29.74 in 7.0 mi North 8.1 mph - N/A Snow Light Snow
2:36 PM 33.8 °F 27.0 °F 33.8 °F 100% 29.74 in 5.0 mi North 8.1 mph - N/A Snow Light Snow
2:38 PM 33.8 °F 27.7 °F 33.8 °F 100% 29.74 in 5.0 mi North 6.9 mph - N/A Snow Light Snow
2:50 PM 33.8 °F 27.0 °F 33.8 °F 100% 29.74 in 6.0 mi North 8.1 mph - N/A Snow Light Snow
3:00 PM 33.8 °F 26.4 °F 33.8 °F 100% 29.74 in 7.0 mi North 9.2 mph - N/A Snow Light Snow
3:01 PM 33.8 °F 27.0 °F 33.8 °F 100% 29.74 in 7.0 mi North 8.1 mph - N/A Snow Light Snow
3:06 PM 33.8 °F 27.0 °F 33.8 °F 100% 29.74 in 9.0 mi North 8.1 mph - N/A Rain Light Rain
3:11 PM 33.8 °F 27.0 °F 33.8 °F 100% 29.74 in 9.0 mi North 8.1 mph - N/A Rain Light Rain
3:27 PM 33.8 °F 27.0 °F 33.8 °F 100% 29.74 in 9.0 mi North 8.1 mph - N/A Rain , Snow Light Snow
3:32 PM 35.6 °F 29.2 °F 33.8 °F 93% 29.74 in 9.0 mi North 8.1 mph - N/A Snow Light Snow
3:35 PM 35.6 °F 29.2 °F 33.8 °F 93% 29.74 in 9.0 mi North 8.1 mph - N/A Snow Light Snow
3:39 PM 35.6 °F 28.6 °F 33.8 °F 93% 29.74 in 9.0 mi North 9.2 mph - N/A Rain , Snow Light Snow
3:40 PM 35.6 °F 28.6 °F 33.8 °F 93% 29.74 in 9.0 mi North 9.2 mph - N/A Rain Light Rain
3:44 PM 35.6 °F 29.9 °F 33.8 °F 93% 29.75 in 9.0 mi North 6.9 mph - N/A Rain Light Rain
4:00 PM 35 °F - 33 °F 92% 29.75 in 10 mi North 6.9 mph - - Rain Light Rain
4:00 PM 35.6 °F 29.9 °F 33.8 °F 93% 29.75 in 9.0 mi North 6.9 mph - N/A Rain Light Rain
4:08 PM 35.6 °F 29.9 °F 33.8 °F 93% 29.74 in 9.0 mi North 6.9 mph - N/A Rain Light Rain
4:12 PM 35.6 °F 29.2 °F 33.8 °F 93% 29.74 in 9.0 mi North 8.1 mph - N/A Rain Light Rain
4:32 PM 35.6 °F 29.9 °F 33.8 °F 93% 29.74 in 9.0 mi North 6.9 mph - N/A   Overcast
5:00 PM 35.6 °F 30.7 °F 33.8 °F 93% 29.74 in 9.0 mi North 5.8 mph - N/A   Overcast
6:00 PM 33.8 °F 30.8 °F 33.8 °F 100% 29.75 in 9.0 mi NNW 3.5 mph - N/A   Overcast
6:57 PM 33.8 °F 30.8 °F 33.8 °F 100% 29.77 in 8.0 mi North 3.5 mph - N/A Rain Light Rain
7:00 PM 33.8 °F 30.8 °F 33.8 °F 100% 29.77 in 7.0 mi North 3.5 mph - N/A Rain Light Rain
7:10 PM 33.8 °F 30.8 °F 33.8 °F 100% 29.77 in 7.0 mi NNE 3.5 mph - N/A   Overcast
7:17 PM 33.8 °F - 33.8 °F 100% 29.77 in 7.0 mi NNE 2.3 mph - N/A Rain Light Rain
7:30 PM 33.8 °F 30.8 °F 33.8 °F 100% 29.77 in 7.0 mi NNE 3.5 mph - N/A   Overcast
8:00 PM 33.8 °F - 33.8 °F 100% 29.78 in 7.0 mi NNE 2.3 mph - N/A   Overcast
8:12 PM 33.8 °F - 33.8 °F 100% 29.79 in 5.0 mi NNE 2.3 mph - N/A   Overcast
8:58 PM 33.8 °F - 33.8 °F 100% 29.81 in 5.0 mi Calm Calm - N/A   Overcast
9:00 PM 33.8 °F - 33.8 °F 100% 29.81 in 5.0 mi Calm Calm - N/A   Overcast
9:38 PM 33.8 °F - 33.8 °F 100% 29.81 in 3.0 mi NE 2.3 mph - N/A   Overcast
9:59 PM 33.8 °F - 33.8 °F 100% 29.82 in 4.0 mi Calm Calm - N/A Rain Light Rain
10:00 PM 34 °F - 34 °F 98% 29.82 in 4 mi NNW 1.2 mph - - Rain Light Rain
10:00 PM 33.8 °F - 33.8 °F 100% 29.82 in 4.0 mi NNW 2.3 mph - N/A Rain Light Rain
10:13 PM 33.8 °F - 33.8 °F 100% 29.83 in 4.0 mi Calm Calm - N/A Rain Light Rain
10:21 PM 33.8 °F - 33.8 °F 100% 29.83 in 4.0 mi Calm Calm - N/A   Overcast
10:31 PM 33.8 °F - 33.8 °F 100% 29.83 in 3.0 mi NNE 2.3 mph - N/A Rain Light Rain
10:46 PM 33.8 °F - 33.8 °F 100% 29.83 in 3.0 mi NNE 2.3 mph - N/A   Overcast
10:48 PM 33.8 °F - 33.8 °F 100% 29.83 in 3.0 mi Calm Calm - N/A   Overcast
11:00 PM 33.8 °F 30.8 °F 33.8 °F 100% 29.84 in 4.0 mi NNW 3.5 mph - N/A   Overcast
11:41 PM 33.8 °F - 33.8 °F 100% 29.85 in 3.0 mi NE 2.3 mph - N/A   Overcast